Tracking 28126 objects as of 1-Oct-2023
HD Live streaming from Space Station
objects crossing your sky now

STARLINK-2427

Track STARLINK-2427 now!
10-day predictions
STARLINK-2427 is classified as:


NORAD ID: 47837
Int'l Code: 2021-018BC
Perigee: 553.4 km
Apogee: 555.3 km
Inclination: 53.1 °
Period: 95.6 minutes
Semi major axis: 6925 km
RCS: Unknown
Launch date: March 11, 2021
Source: United States (US)
Launch site: AIR FORCE EASTERN TEST RANGE (AFETR)
Your satellite tracking list
Your tracking list is empty




NASA's NSSDC Master Catalog

Two Line Element Set (TLE):
1 47837U 21018BC  23273.71898121  .00001020  00000-0  87369-4 0  9995
2 47837  53.0533 271.3427 0001431  95.7227 264.3925 15.06400800142256
Source of the keplerian elements: AFSPC